Weerstation Grootegast  Weerstation Grootegast


15 daagse weersverwachting Skive (DK)

  • Overzicht
  • Per uur
  • 15 dagen
  • Extra
  • Vergelijk
  • Kaarten
  • Dagkaart
  • Meer »
  • Info
  • Statistieken
  • Directe link
    Temp 6h Neerslag Wind  
 06:01     20:56    Daglengte: 14:55 Morgen
02:00
14°
 
3
08:00
15°
 
3
14:00
18°
 
4
20:00
17°
5.9 mm
4
 06:03     20:53    Daglengte: 14:50 Maandag 19 Aug
02:00
13°
 
3
08:00
15°
 
5
14:00
18°
0.9 mm
7
20:00
16°
3.7 mm
6
 06:05     20:51    Daglengte: 14:46 Dinsdag 20 Aug
02:00
14°
 
4
08:00
14°
 
5
14:00
17°
8.7 mm
6
20:00
15°
10.6 mm
4
Locatie info
Region: Midtjylland
Latitude: 56.5680°N
Longitude: 9.0335°E
1 masl
Postcode: 7800
Temp/Neerslag /Baro Onweer/Dauwpunt
    Temp Baro 1h Neerslag Dauwpunt Wind UV Bewolking  
 06:01     20:56    Daglengte: 14:55 Morgen
00:00
15°
1003.5 hPa
48%
13.2°
3
Windvlaag: 5.1 m/s
27%
01:00
14°
1003.7 hPa
14%
13.2°
3
Windvlaag: 4.6 m/s
31%
02:00
14°
1003.8 hPa
14%
13.0°
3
Windvlaag: 4.5 m/s
21%
03:00
14°
1003.7 hPa
14%
12.8°
3
Windvlaag: 4.7 m/s
11%
04:00
14°
1003.3 hPa
14%
12.9°
3
Windvlaag: 4.2 m/s
5%
05:00
13°
1003.1 hPa
14%
12.9°
3
Windvlaag: 4.1 m/s
57%
06:00
14°
1002.9 hPa
14%
12.9°
2
Windvlaag: 4.2 m/s
69%
07:00
14°
1002.7 hPa
14%
13.2°
3
Windvlaag: 4.1 m/s
83%
08:00
15°
1002.6 hPa
14%
13.0°
3
Windvlaag: 5.2 m/s
87%
09:00
16°
1002.3 hPa
14%
13.9°
3
Windvlaag: 5.6 m/s
88%
10:00
16°
1002.4 hPa
16%
14.3°
3
Windvlaag: 6.3 m/s
91%
11:00
17°
1002.3 hPa
19%
14.6°
3
Windvlaag: 6.6 m/s
87%
12:00
17°
1002.1 hPa
25%
14.3°
4
Windvlaag: 7 m/s
75%
13:00
18°
1002.0 hPa
82%
15.4°
4
Windvlaag: 6.9 m/s
70%
14:00
18°
1001.7 hPa
82%
15.6°
4
Windvlaag: 6.8 m/s
79%
15:00
17°
1001.6 hPa 0.9 mm
82%
15.0°
4
Windvlaag: 7.4 m/s
90%
16:00
17°
1001.3 hPa 1.8 mm
82%
15.1°
4
Windvlaag: 7 m/s
90%
17:00
17°
1001.2 hPa 1.2 mm
82%
14.8°
3
Windvlaag: 5.2 m/s
77%
18:00
17°
1001.6 hPa 0.9 mm
82%
14.9°
3
Windvlaag: 5.7 m/s
54%
19:00
17°
1001.8 hPa 1.0 mm
82%
14.4°
4
Windvlaag: 7.1 m/s
38%
20:00
17°
1002.0 hPa
75%
13.3°
4
Windvlaag: 8 m/s
40%
21:00
15°
1002.4 hPa
14%
13.0°
4
Windvlaag: 7 m/s
24%
22:00
15°
1002.8 hPa
16%
12.9°
4
Windvlaag: 6.6 m/s
15%
23:00
15°
1003.2 hPa
14%
12.7°
4
Windvlaag: 6.3 m/s
14%
 06:03     20:53    Daglengte: 14:50 Maandag 19 Aug
00:00
14°
1003.5 hPa
14%
12.4°
4
Windvlaag: 6.4 m/s
1%
01:00
14°
1004.0 hPa
14%
12.1°
3
Windvlaag: 5.7 m/s
2%
02:00
13°
1004.2 hPa
14%
11.8°
3
Windvlaag: 5.7 m/s
6%
03:00
13°
1004.2 hPa
14%
11.8°
4
Windvlaag: 5.9 m/s
1%
04:00
13°
1004.2 hPa
14%
11.8°
4
Windvlaag: 6.4 m/s
1%
05:00
13°
1004.3 hPa
14%
11.9°
4
Windvlaag: 6.8 m/s
2%
06:00
13°
1004.5 hPa
19%
12.0°
5
Windvlaag: 7.3 m/s
9%
07:00
13°
1004.8 hPa
20%
12.4°
5
Windvlaag: 7.7 m/s
5%
08:00
15°
1005.0 hPa
24%
13.2°
5
Windvlaag: 8 m/s
15%
09:00
16°
1005.2 hPa
77%
13.8°
6
Windvlaag: 8.9 m/s
5%
10:00
17°
1005.7 hPa
82%
12.3°
7
Windvlaag: 11.1 m/s
10%
11:00
18°
1006.1 hPa 0.9 mm
82%
12.0°
7
Windvlaag: 12.1 m/s
45%
12:00
18°
1006.6 hPa
81%
12.8°
7
Windvlaag: 12 m/s
16%
13:00
18°
1007.1 hPa
74%
13.1°
7
Windvlaag: 11.4 m/s
16%
14:00
18°
1007.7 hPa
75%
12.9°
7
Windvlaag: 11.3 m/s
33%
15:00
18°
1008.2 hPa
71%
13.1°
7
Windvlaag: 10.9 m/s
45%
16:00
18°
1008.7 hPa
77%
12.9°
7
Windvlaag: 10.1 m/s
62%
17:00
18°
1009.2 hPa 1.3 mm
100%
12.4°
6
Windvlaag: 9.6 m/s
75%
18:00
18°
1009.7 hPa 1.4 mm
100%
13.4°
6
Windvlaag: 9.1 m/s
59% warningclass
19:00
17°
1010.2 hPa 1.0 mm
100%
12.2°
6
Windvlaag: 9.6 m/s
21%
20:00
16°
1010.6 hPa
85%
12.1°
6
Windvlaag: 8.1 m/s
40%
21:00
15°
1011.3 hPa
74%
11.2°
5
Windvlaag: 6.9 m/s
34%
22:00
15°
1012.0 hPa
37%
11.2°
4
Windvlaag: 6.6 m/s
21%
23:00
14°
1012.5 hPa
38%
11.0°
4
Windvlaag: 6.8 m/s
22%
 06:05     20:51    Daglengte: 14:46 Dinsdag 20 Aug
00:00
14°
1012.9 hPa
22%
10.7°
4
Windvlaag: 6.8 m/s
21%
01:00
14°
1013.4 hPa
22%
10.6°
4
Windvlaag: 6.5 m/s
15%
02:00
14°
1013.6 hPa
27%
10.4°
4
Windvlaag: 6.5 m/s
51%
03:00
14°
1013.8 hPa
29%
10.9°
4
Windvlaag: 6.2 m/s
34%
04:00
13°
1013.8 hPa
25%
11.1°
4
Windvlaag: 5.6 m/s
12%
05:00
13°
1014.1 hPa
22%
11.0°
3
Windvlaag: 5.4 m/s
30%
06:00
13°
1014.3 hPa
24%
11.1°
3
Windvlaag: 6.3 m/s
11%
07:00
13°
1014.7 hPa
27%
11.4°
4
Windvlaag: 7.3 m/s
6%
08:00
14°
1015.1 hPa
30%
11.4°
5
Windvlaag: 8.3 m/s
5%
09:00
15°
1015.6 hPa
89%
13.0°
5
Windvlaag: 3.7 m/s
8%
10:00
16°
1016.0 hPa
100%
13.5°
6
Windvlaag: 3.7 m/s
11%
11:00
17°
1016.4 hPa 2.3 mm
100%
13.1°
6
Windvlaag: 3.1 m/s
43%
12:00
17°
1016.8 hPa 1.7 mm
100%
13.2°
6
Windvlaag: 3.1 m/s
40%
13:00
17°
1017.2 hPa 3.1 mm
99%
12.8°
6
Windvlaag: 3 m/s
52%
14:00
17°
1017.4 hPa 1.6 mm
100%
12.8°
6
Windvlaag: 2.7 m/s
28%
15:00
18°
1017.7 hPa 1.9 mm
96%
12.8°
6
Windvlaag: 1.1 m/s
29%
16:00
18°
1017.9 hPa 2.9 mm
93%
12.6°
6
Windvlaag: 1.1 m/s
18%
17:00
18°
1018.2 hPa 2.9 mm
83%
11.9°
6
Windvlaag: 1.1 m/s
16%
18:00
17°
1018.6 hPa 2.9 mm
68%
12.3°
6
Windvlaag: 1.1 m/s
22%
19:00
16°
1018.9 hPa
24%
12.5°
5
Windvlaag: 1.1 m/s
21%
20:00
15°
1019.3 hPa
79%
13.0°
4
Windvlaag: 1 m/s
31%
21:00
14°
1019.8 hPa 8.8 mm
100%
12.5°
3
Windvlaag: 6.2 m/s
29%
22:00
14°
1020.2 hPa 8.8 mm
100%
12.3°
3
Windvlaag: 7 m/s
28%
23:00
14°
1020.6 hPa 8.8 mm
100%
12.0°
3
Windvlaag: 7.6 m/s
27%
Temp/Neerslag /Baro Onweer/Dauwpunt
    Temp Baro Neerslag Dauwpunt Wind Bewolking  
 06:01     20:56    Daglengte: 14:55 Morgen
02:00
14°
1003.8 hPa   13.0°
3
21%
05:00
13°
1003.1 hPa   12.9°
3
57%
08:00
15°
1002.6 hPa   13.0°
3
87%
11:00
17°
1002.3 hPa   14.6°
3
87%
14:00
18°
1001.7 hPa   15.6°
4
79%
17:00
17°
1001.2 hPa 3.9 mm 14.8°
3
77%
20:00
17°
1002.0 hPa 1.9 mm 13.3°
4
40%
23:00
15°
1003.2 hPa   12.7°
4
14%
 06:03     20:53    Daglengte: 14:50 Maandag 19 Aug
02:00
13°
1004.2 hPa   11.8°
3
6%
05:00
13°
1004.3 hPa   11.9°
4
2%
08:00
15°
1005.0 hPa   13.2°
5
15%
11:00
18°
1006.1 hPa 0.9 mm 12.0°
7
45%
14:00
18°
1007.7 hPa   12.9°
7
33%
17:00
18°
1009.2 hPa 1.3 mm 12.4°
6
75%
20:00
16°
1010.6 hPa 2.4 mm 12.1°
6
40%
23:00
14°
1012.5 hPa   11.0°
4
22%
 06:05     20:51    Daglengte: 14:46 Dinsdag 20 Aug
02:00
14°
1013.6 hPa   10.4°
4
51%
05:00
13°
1014.1 hPa   11.0°
3
30%
08:00
14°
1015.1 hPa   11.4°
5
5%
11:00
17°
1016.4 hPa 2.3 mm 13.1°
6
43%
14:00
17°
1017.4 hPa 6.4 mm 12.8°
6
28%
17:00
18°
1018.2 hPa 7.7 mm 11.9°
6
16%
20:00
15°
1019.3 hPa 2.9 mm 13.0°
4
31%
23:00
14°
1020.6 hPa 26.3 mm 12.0°
3
27%
 06:07     20:48    Daglengte: 14:41 Woensdag 21 Aug
02:00
12°
1021.7 hPa 26.4 mm 11.0°
2
24%
05:00
13°
1023.4 hPa 10.0 mm 10.8°
2
23%
08:00
13°
1024.3 hPa 10.0 mm 10.7°
2
22%
11:00
16°
1024.8 hPa 10.0 mm 11.3°
4
20%
14:00
18°
1025.3 hPa 10.0 mm 11.4°
5
18%
17:00
17°
1025.2 hPa 10.0 mm 11.7°
4
42%
20:00
16°
1025.0 hPa 10.0 mm 12.0°
3
66%
23:00
15°
1025.0 hPa 10.0 mm 11.8°
3
61%
 06:09     20:46    Daglengte: 14:37 Donderdag 22 Aug
02:00
13°
1024.9 hPa 10.0 mm 11.5°
3
56%
05:00
14°
1024.2 hPa 10.0 mm 12.1°
4
73%
08:00
15°
1023.5 hPa 10.0 mm 12.9°
5
91%
11:00
15°
1023.0 hPa 11.4 mm 13.5°
5
91%
14:00
16°
1022.4 hPa 13.4 mm 13.9°
6
92%
17:00
16°
1021.7 hPa 15.4 mm 13.9°
5
92%
20:00
16°
1021.1 hPa 16.0 mm 13.7°
4
92%
23:00
16°
1020.1 hPa 16.0 mm 14.0°
5
92%
 06:11     20:43    Daglengte: 14:32 Vrijdag 23 Aug
02:00
16°
1019.1 hPa 16.0 mm 14.5°
7
92%
05:00
16°
1019.6 hPa 16.0 mm 14.9°
6
92%
08:00
17°
1020.2 hPa 16.0 mm 15.3°
5
92%
11:00
19°
1021.5 hPa 16.0 mm 15.7°
6
89%
14:00
20°
1022.7 hPa 16.0 mm 16.0°
6
85%
17:00
19°
1023.2 hPa 16.0 mm 15.6°
5
62%
20:00
18°
1023.7 hPa 16.0 mm 15.2°
4
39%
23:00
16°
1024.3 hPa 16.0 mm 14.7°
3
34%
 06:13     20:41    Daglengte: 14:28 Zaterdag 24 Aug
02:00
14°
1024.9 hPa 16.0 mm 14.1°
2
29%
05:00
15°
1025.2 hPa 16.0 mm 14.4°
2
53%
08:00
16°
1025.5 hPa 16.0 mm 14.7°
2
76%
11:00
19°
1025.4 hPa 16.0 mm 15.1°
2
67%
14:00
22°
1025.1 hPa 16.0 mm 14.7°
2
59%
17:00
21°
1024.3 hPa 16.0 mm 15.4°
2
47%
20:00
19°
1023.4 hPa 16.0 mm 15.7°
2
36%
23:00
17°
1023.4 hPa   14.7°
2
19%
 06:15     20:38    Daglengte: 14:23 Zondag 25 Aug
02:00
15°
1023.4 hPa 32.0 mm 13.7°
3
2%
08:00
17°
1022.0 hPa 32.0 mm 15.0°
4
27%
14:00
24°
1020.4 hPa 32.0 mm 17.7°
5
86%
20:00
21°
1018.9 hPa 32.0 mm 16.7°
4
30%
 06:17     20:35    Daglengte: 14:18 Maandag 26 Aug
02:00
17°
1018.9 hPa 32.0 mm 15.0°
3
30%
08:00
17°
1019.2 hPa 32.0 mm 15.4°
1
14%
14:00
25°
1020.2 hPa 32.0 mm 18.3°
2
13%
20:00
20°
1020.8 hPa 32.0 mm 16.8°
3
6%
 06:19     20:33    Daglengte: 14:14 Dinsdag 27 Aug
02:00
14°
1022.5 hPa 32.0 mm 12.8°
2
8%
08:00
15°
1022.4 hPa 32.0 mm 12.7°
3
82%
14:00
20°
1022.6 hPa 32.0 mm 13.6°
4
0%
20:00
17°
1018.4 hPa 0.1 mm 11.2°
3
34%
 06:21     20:30    Daglengte: 14:09 Woensdag 28 Aug
02:00
14°
1019.0 hPa   11.1°
2
31%
08:00
14°
1018.5 hPa 0.3 mm 11.2°
2
30%
14:00
20°
1018.5 hPa 0.4 mm 11.0°
3
26%
20:00
17°
1017.8 hPa 0.2 mm 11.3°
3
33%
 06:23     20:28    Daglengte: 14:05 Donderdag 29 Aug
02:00
14°
1017.9 hPa 0.3 mm 10.7°
2
32%
08:00
14°
1017.3 hPa 0.4 mm 11.4°
2
27%
14:00
20°
1017.5 hPa 0.2 mm 11.2°
3
31%
20:00
17°
1016.4 hPa 0.3 mm 12.0°
3
16%
 06:25     20:25    Daglengte: 14:00 Vrijdag 30 Aug
02:00
14°
1016.3 hPa 0.3 mm 11.3°
2
20%
08:00
14°
1015.6 hPa 0.2 mm 11.5°
2
30%
14:00
19°
1015.7 hPa 0.4 mm 11.0°
3
37%
20:00
16°
1014.8 hPa 0.1 mm 10.6°
3
26%
 06:27     20:22    Daglengte: 13:55 Zaterdag 31 Aug
02:00
13°
1014.7 hPa 0.2 mm 10.1°
2
25%
08:00
13°
1013.8 hPa 0.3 mm 10.5°
2
36%
14:00
19°
1014.4 hPa 0.2 mm 10.6°
4
35%
20:00
16°
1013.6 hPa 0.3 mm 11.0°
3
34%
 06:29     20:20    Daglengte: 13:51 Zondag 01 Sep
02:00
13°
1013.6 hPa 0.5 mm 10.7°
3
38%
08:00
13°
1013.2 hPa 0.8 mm 10.8°
3
33%
14:00
18°
1013.9 hPa 0.3 mm 10.5°
4
37%
20:00
15°
1013.6 hPa 0.2 mm 10.2°
3
36%
  CAPE Lifted Index Hail Supercell Tornado SRH 3km CL BTM PRES CL TOP PRES Swiss DWD icon SMHI TS
 06:01     20:56    Daglengte: 14:55 Morgen
00:00 35 J/kg 0.5 K 0 % 0 % 0 % 0 m²/s² 0 0 8.12 2
01:00 37 J/kg 0.5 K 0 % 0 % 0 % 0 m²/s² 0 0 8.69 2
02:00 62 J/kg 0.6 K 0 % 0 % 0 % 0 m²/s² 0 0 7.92 2
03:00 58 J/kg 1.1 K 0 % 0 % 0 % 0 m²/s² 0 0 8.69 1
04:00 66 J/kg 1.7 K 0 % 0 % 0 % 0 m²/s² 0 0 8.33 2
05:00 78 J/kg 2.0 K 0 % 0 % 0 % 0 m²/s² 0 0 8.06 2
06:00 81 J/kg 1.9 K 0 % 0 % 0 % 0 m²/s² 0 0 8.32 3
07:00 65 J/kg 1.7 K 0 % 0 % 0 % 0 m²/s² 0 0 7.94 3
08:00 62 J/kg 2.0 K 0 % 0 % 0 % 0 m²/s² 0 0 7.28 3
09:00 75 J/kg 2.6 K 0 % 0 % 0 % 0 m²/s² 0 0 6.38 3
10:00 73 J/kg 2.7 K 0 % 0 % 0 % 0 m²/s² 0 0 4.47 3
11:00 147 J/kg 1.8 K 0 % 0 % 0 % 0 m²/s² 0 0 2.85 3
12:00 142 J/kg 1.6 K 0 % 0 % 0 % 0 m²/s² 0 0 1.78 3
13:00 252 J/kg 1.0 K 0 % 0 % 0 % 0 m²/s² 0 0 1.6 3
14:00 324 J/kg -0.6 K 0 % 0 % 0 % 0 m²/s² 0 0 0 80
15:00 381 J/kg -1.4 K 0 % 0 % 0 % 0 m²/s² 0 0 -0.89 80
16:00 358 J/kg -1.2 K 0 % 0 % 0 % 0 m²/s² 0 0 -1.11 61
17:00 286 J/kg -0.6 K 0 % 0 % 0 % 0 m²/s² 0 0 0.24 80
18:00 144 J/kg -0.3 K 0 % 0 % 0 % 0 m²/s² 0 0 0.3 80
19:00 258 J/kg -1.8 K 0 % 0 % 0 % 0 m²/s² 0 0 -0.15 80
20:00 358 J/kg -2.2 K 0 % 0 % 0 % 0 m²/s² 0 0 -1.15 2
21:00 254 J/kg -0.9 K 0 % 0 % 0 % 0 m²/s² 0 0 0.63 2
22:00 122 J/kg 0.5 K 0 % 0 % 0 % 0 m²/s² 0 0 4.34 2
23:00 55 J/kg 1.1 K 0 % 0 % 0 % 0 m²/s² 0 0 6.47 2
 06:03     20:53    Daglengte: 14:50 Maandag 19 Aug
00:00 74 J/kg 1.2 K 0 % 0 % 0 % 0 m²/s² 0 0 6.3 2
01:00 59 J/kg 1.5 K 0 % 0 % 0 % 0 m²/s² 0 0 5.76 1
02:00 60 J/kg 0.7 K 0 % 0 % 0 % 0 m²/s² 0 0 3.88 1
03:00 123 J/kg -0.3 K 0 % 0 % 0 % 0 m²/s² 0 0 2.25 1
04:00 129 J/kg -1.2 K 0 % 0 % 0 % 0 m²/s² 0 0 1.11 2
05:00 152 J/kg -1.6 K 0 % 0 % 0 % 0 m²/s² 0 0 0.95 1
06:00 336 J/kg -1.7 K 0 % 0 % 0 % 0 m²/s² 0 0 0.55 3
07:00 389 J/kg -1.5 K 0 % 0 % 0 % 0 m²/s² 0 0 1.2 2
08:00 364 J/kg -1.3 K 0 % 0 % 0 % 0 m²/s² 0 0 1.79 2
09:00 506 J/kg -1.8 K 0 % 0 % 0 % 0 m²/s² 0 0 -0.54 2
10:00 612 J/kg -2.2 K 0 % 0 % 0 % 0 m²/s² 0 0 -1.06 2
11:00 588 J/kg -2.2 K 0 % 0 % 0 % 0 m²/s² 0 0 -1.06 2
12:00 811 J/kg -2.8 K 0 % 0 % 0 % 0 m²/s² 0 0 -1.39 2
13:00 839 J/kg -2.9 K 0 % 0 % 0 % 0 m²/s² 0 0 -1.79 2
14:00 650 J/kg -2.1 K 0 % 0 % 0 % 0 m²/s² 0 0 -0.42 3
15:00 739 J/kg -2.6 K 0 % 0 % 0 % 0 m²/s² 0 0 -1.13 3
16:00 684 J/kg -2.7 K 0 % 0 % 0 % 0 m²/s² 0 0 -1.29 3
17:00 554 J/kg -2.3 K 0 % 0 % 0 % 0 m²/s² 0 0 -0.68 80
18:00 424 J/kg -1.7 K 0 % 0 % 0 % 0 m²/s² 0 0 0.16 95
19:00 267 J/kg -0.8 K 0 % 0 % 0 % 0 m²/s² 0 0 1.66 80
20:00 232 J/kg -0.6 K 0 % 0 % 0 % 0 m²/s² 0 0 1.77 2
21:00 240 J/kg -0.7 K 0 % 0 % 0 % 0 m²/s² 0 0 2.06 2
22:00 209 J/kg -0.5 K 0 % 0 % 0 % 0 m²/s² 0 0 2.02 2
23:00 164 J/kg -0.5 K 0 % 0 % 0 % 0 m²/s² 0 0 2.32 2
 06:05     20:51    Daglengte: 14:46 Dinsdag 20 Aug
00:00 196 J/kg -0.9 K 0 % 0 % 0 % 0 m²/s² 0 0 1.83 2
01:00 204 J/kg -0.7 K 0 % 0 % 0 % 0 m²/s² 0 0 1.46 2
02:00 191 J/kg -0.5 K 0 % 0 % 0 % 0 m²/s² 0 0 1.6 2
03:00 146 J/kg -0.7 K 0 % 0 % 0 % 0 m²/s² 0 0 1.4 2
04:00 28 J/kg 0.7 K 0 % 0 % 0 % 0 m²/s² 0 0 1.06 2
05:00 63 J/kg -0.1 K 0 % 0 % 0 % 0 m²/s² 0 0 2.48 2
06:00 252 J/kg -0.6 K 0 % 0 % 0 % 0 m²/s² 0 0 3.66 2
07:00 32 J/kg 1.1 K 0 % 0 % 0 % 0 m²/s² 0 0 5.15 2
08:00 27 J/kg 0.7 K 0 % 0 % 0 % 0 m²/s² 0 0 4.78 2
09:00 143 J/kg 0.2 K 0 % 0 % 0 % 0 m²/s² 0 0 4.07 2
10:00 371 J/kg -0.6 K 0 % 0 % 0 % 0 m²/s² 0 0 2.22 2
11:00 209 J/kg 0.3 K 0 % 0 % 0 % 0 m²/s² 0 0 1.98 3
12:00 264 J/kg -0.2 K 0 % 0 % 0 % 0 m²/s² 0 0 1.42 2
13:00 268 J/kg -0.4 K 0 % 0 % 0 % 0 m²/s² 0 0 1.58 2
14:00 268 J/kg -0.3 K 0 % 0 % 0 % 0 m²/s² 0 0 2.37 3
15:00 257 J/kg -0.2 K 0 % 0 % 0 % 0 m²/s² 0 0 2.95 2
16:00 259 J/kg -0.2 K 0 % 0 % 0 % 0 m²/s² 0 0 2.77 2
17:00 281 J/kg -0.4 K 0 % 0 % 0 % 0 m²/s² 0 0 2.27 2
18:00 385 J/kg -0.8 K 0 % 0 % 0 % 0 m²/s² 0 0 2.5 2
19:00 301 J/kg -0.5 K 0 % 0 % 0 % 0 m²/s² 0 0 1.42 2
20:00 280 J/kg -0.6 K 0 % 0 % 0 % 0 m²/s² 0 0 0.75 1
21:00 408 J/kg -1.4 K 0 % 0 % 0 % 0 m²/s² 0 0 0.76
22:00 392 J/kg -1.5 K 0 % 0 % 0 % 0 m²/s² 0 0 0.6
23:00 388 J/kg -1.5 K 0 % 0 % 0 % 0 m²/s² 0 0 -0.27
Temp Baro Wind Neerslag
  EWN Forecast EWN WRFDA DWD ICON FMI HIRLAM MET Norway GFS
 06:01     20:56    Daglengte: 14:55 Morgen
02:00 14.1° 1003.8 hPa 2.8 m/s 0.0 mm 12.4° 1003.0 hPa 2.8 m/s 0.6 mm 13.8° 1004.1 hPa 3.1 m/s -1.7 mm 13.7° 1004.1 hPa 2.8 m/s 0.0 mm 16.2° 1003.7 hPa 2.2 m/s 0.0 mm 12.8° 1003.9 hPa 3.0 m/s
05:00 13.5° 1003.1 hPa 2.6 m/s 0.0 mm 11.1° 1002.6 hPa 3.0 m/s 0.6 mm 13.4° 1003.3 hPa 2.9 m/s 0.0 mm 14.5° 1003.6 hPa 2.7 m/s 0.0 mm 13.8° 1003.1 hPa 1.9 m/s 0.0 mm 12.4° 1003.4 hPa 3.2 m/s
08:00 14.8° 1002.6 hPa 2.6 m/s 0.0 mm 14.8° 1002.1 hPa 3.6 m/s 0.6 mm 14.4° 1002.7 hPa 2.5 m/s 0.0 mm 14.9° 1003.2 hPa 2.4 m/s 0.0 mm 15.3° 1002.5 hPa 2.4 m/s 0.0 mm 14.6° 1002.4 hPa 4.7 m/s
11:00 16.6° 1002.3 hPa 3.5 m/s 0.0 mm 18.5° 1001.9 hPa 5.3 m/s 0.7 mm 17.3° 1002.2 hPa 3.8 m/s 0.0 mm 16.8° 1003.1 hPa 2.9 m/s 0.0 mm 16.0° 1002.1 hPa 2.7 m/s 0.0 mm 18.3° 1002.3 hPa 5.5 m/s
14:00 18.2° 1001.7 hPa 3.7 m/s 0.0 mm 20.1° 999.9 hPa 4.5 m/s 2.1 mm 16.5° 1002.0 hPa 4.3 m/s 1.1 mm 17.8° 1002.5 hPa 1.8 m/s 0.0 mm 18.5° 1001.6 hPa 3.9 m/s 0.3 mm 18.0° 1001.9 hPa 5.1 m/s
17:00 16.9° 1001.2 hPa 3.5 m/s 3.9 mm 19.1° 1000.8 hPa 7.4 m/s 8.5 mm 16.7° 1001.1 hPa 5.4 m/s 2.8 mm 17.2° 1002.0 hPa 2.4 m/s 0.0 mm 16.5° 1001.1 hPa 0.5 m/s 2.8 mm 19.0° 1002.0 hPa 5.3 m/s
20:00 16.5° 1002.0 hPa 4.3 m/s 1.9 mm 16.8° 1000.8 hPa 4.8 m/s 10.0 mm 16.4° 1001.9 hPa 4.6 m/s 1.4 mm 16.6° 1002.0 hPa 1.8 m/s 0.0 mm 16.7° 1002.4 hPa 4.6 m/s 0.4 mm 14.6° 1002.0 hPa 4.3 m/s
23:00 14.6° 1003.2 hPa 3.6 m/s 0.0 mm 13.4° 1001.8 hPa 3.2 m/s 10.0 mm 14.3° 1003.2 hPa 3.7 m/s 0.0 mm 15.5° 1003.0 hPa 3.6 m/s 0.0 mm 15.0° 1003.5 hPa 3.4 m/s 0.0 mm 12.7° 1003.2 hPa 4.8 m/s
 06:03     20:53    Daglengte: 14:50 Maandag 19 Aug
02:00 13.1° 1004.2 hPa 3.5 m/s 0.0 mm 12.9° 1002.0 hPa 4.2 m/s 10.0 mm 13.6° 1004.2 hPa 4.0 m/s 0.0 mm 13.6° 1003.7 hPa 3.0 m/s 0.0 mm 13.1° 1004.9 hPa 2.6 m/s 0.0 mm 12.5° 1003.7 hPa 4.8 m/s
05:00 12.9° 1004.3 hPa 4.3 m/s 0.0 mm 13.2° 1001.8 hPa 5.8 m/s 10.0 mm 13.6° 1004.6 hPa 4.6 m/s 0.0 mm 13.0° 1003.2 hPa 4.1 m/s 0.0 mm 12.8° 1005.3 hPa 3.0 m/s 0.0 mm 12.6° 1003.9 hPa 5.1 m/s
08:00 14.9° 1005.0 hPa 5.0 m/s 0.0 mm 16.3° 1003.0 hPa 6.7 m/s 10.0 mm 15.1° 1005.2 hPa 5.2 m/s 0.0 mm 13.8° 1003.5 hPa 4.7 m/s 0.0 mm 15.1° 1005.6 hPa 4.2 m/s 0.0 mm 14.8° 1004.8 hPa 5.6 m/s
11:00 17.7° 1006.1 hPa 7.2 m/s 0.9 mm 18.9° 1004.3 hPa 9.3 m/s 10.1 mm 17.3° 1006.4 hPa 7.3 m/s 0.2 mm 17.1° 1004.3 hPa 5.9 m/s 0.0 mm 18.7° 1006.9 hPa 7.4 m/s 0.0 mm 17.8° 1006.4 hPa 8.1 m/s
14:00 18.4° 1007.7 hPa 7.2 m/s 0.0 mm 18.7° 1006.1 hPa 8.9 m/s 10.8 mm 18.5° 1007.6 hPa 8.3 m/s 0.2 mm 16.8° 1006.0 hPa 7.0 m/s 0.0 mm 18.6° 1009.2 hPa 7.0 m/s 0.0 mm 17.3° 1008.3 hPa 7.8 m/s
17:00 17.7° 1009.2 hPa 6.5 m/s 1.3 mm 18.5° 1008.3 hPa 9.0 m/s 12.8 mm 17.1° 1009.0 hPa 7.2 m/s 0.5 mm 17.7° 1010.3 hPa 5.5 m/s 0.0 mm 17.4° 1010.3 hPa 8.7 m/s
20:00 16.1° 1010.6 hPa 5.6 m/s 2.4 mm 16.2° 1010.2 hPa 6.4 m/s 13.0 mm 15.6° 1010.3 hPa 6.3 m/s 1.1 mm 16.5° 1011.5 hPa 4.2 m/s 0.0 mm 15.1° 1011.9 hPa 5.3 m/s
23:00 14.5° 1012.5 hPa 4.2 m/s 0.0 mm 13.4° 1011.4 hPa 4.0 m/s 13.0 mm 14.4° 1012.2 hPa 4.6 m/s 0.0 mm 15.5° 1013.3 hPa 3.7 m/s 0.0 mm 14.3° 1013.6 hPa 5.0 m/s
 06:05     20:51    Daglengte: 14:46 Dinsdag 20 Aug
02:00 13.8° 1013.6 hPa 4.3 m/s 0.0 mm 13.0° 1012.3 hPa 5.1 m/s 13.0 mm 13.9° 1013.0 hPa 4.5 m/s 0.0 mm 14.6° 1014.2 hPa 3.4 m/s 0.0 mm 12.4° 1013.9 hPa 4.4 m/s
05:00 12.6° 1014.1 hPa 3.1 m/s 0.0 mm 12.7° 1012.5 hPa 1.7 m/s 17.2 mm 13.5° 1013.5 hPa 4.5 m/s 0.0 mm 12.6° 1014.5 hPa 2.8 m/s 0.0 mm 11.9° 1013.9 hPa 3.8 m/s
08:00 14.3° 1015.1 hPa 4.8 m/s 0.0 mm 14.1° 1013.0 hPa 5.5 m/s 25.2 mm 14.5° 1014.6 hPa 5.0 m/s 0.0 mm 14.6° 1015.5 hPa 4.8 m/s 0.0 mm 13.9° 1014.3 hPa 4.5 m/s
11:00 16.7° 1016.4 hPa 5.7 m/s 2.3 mm 18.1° 1014.5 hPa 6.0 m/s 25.2 mm 16.5° 1016.1 hPa 6.6 m/s 0.1 mm 16.5° 1016.7 hPa 4.9 m/s 1.2 mm 17.3° 1015.7 hPa 5.9 m/s
14:00 17.4° 1017.4 hPa 5.6 m/s 6.4 mm 19.2° 1015.6 hPa 6.9 m/s 25.2 mm 17.1° 1017.3 hPa 6.6 m/s 0.3 mm 17.3° 1017.8 hPa 5.2 m/s 5.0 mm 18.1° 1016.6 hPa 6.9 m/s
17:00 17.6° 1018.2 hPa 5.8 m/s 7.7 mm 18.7° 1016.4 hPa 5.7 m/s 25.2 mm 17.6° 1018.2 hPa 6.1 m/s 0.3 mm 17.5° 1018.6 hPa 5.7 m/s 0.6 mm 17.5° 1017.4 hPa 7.1 m/s
20:00 15.4° 1019.3 hPa 4.1 m/s 2.9 mm 15.9° 1017.2 hPa 5.0 m/s 25.4 mm 15.8° 1019.1 hPa 4.4 m/s 0.0 mm 15.0° 1019.8 hPa 3.7 m/s 0.0 mm 14.4° 1018.3 hPa 5.3 m/s
23:00 13.5° 1020.6 hPa 2.8 m/s 26.3 mm 13.5° 1018.5 hPa 3.2 m/s 26.3 mm 13.6° 1020.9 hPa 2.8 m/s 12.2° 1020.1 hPa 4.0 m/s
 06:07     20:48    Daglengte: 14:41 Woensdag 21 Aug
02:00 12.1° 1021.7 hPa 2.0 m/s 26.4 mm 12.0° 1019.7 hPa 2.9 m/s 26.4 mm 12.1° 1022.0 hPa 1.8 m/s 12.1° 1020.4 hPa 3.8 m/s
05:00 12.8° 1023.4 hPa 2.3 m/s 10.0 mm 13.0° 1023.7 hPa 2.1 m/s 10.8° 1021.1 hPa 3.6 m/s 10.0 mm
08:00 13.4° 1024.3 hPa 2.5 m/s 10.0 mm 13.5° 1024.5 hPa 2.3 m/s 12.6° 1022.5 hPa 4.7 m/s 10.0 mm
11:00 15.7° 1024.8 hPa 4.0 m/s 10.0 mm 15.7° 1025.0 hPa 3.8 m/s 15.8° 1023.6 hPa 5.8 m/s 10.0 mm
14:00 17.8° 1025.3 hPa 5.3 m/s 10.0 mm 17.9° 1025.4 hPa 5.3 m/s 17.2° 1024.7 hPa 5.6 m/s 10.0 mm
17:00 17.1° 1025.2 hPa 4.2 m/s 10.0 mm 17.1° 1025.2 hPa 4.2 m/s 16.6° 1024.9 hPa 5.1 m/s 10.0 mm
20:00 16.2° 1025.0 hPa 3.0 m/s 10.0 mm 16.4° 1025.0 hPa 3.0 m/s 13.9° 1025.2 hPa 2.9 m/s 10.0 mm
23:00 14.5° 1025.0 hPa 3.1 m/s 10.0 mm 14.8° 1025.0 hPa 3.2 m/s 11.2° 1025.6 hPa 2.3 m/s 10.0 mm
 06:09     20:46    Daglengte: 14:37 Donderdag 22 Aug
02:00 13.1° 1024.9 hPa 3.4 m/s 10.0 mm 13.3° 1024.9 hPa 3.4 m/s 10.7° 1025.4 hPa 3.0 m/s 10.0 mm
05:00 13.8° 1024.2 hPa 4.2 m/s 10.0 mm 14.1° 1024.2 hPa 4.2 m/s 10.6° 1024.4 hPa 3.5 m/s 10.0 mm
08:00 14.7° 1023.5 hPa 5.1 m/s 10.0 mm 14.8° 1023.4 hPa 5.1 m/s 13.4° 1024.3 hPa 4.8 m/s 10.0 mm
11:00 15.3° 1023.0 hPa 5.5 m/s 11.4 mm 15.4° 1022.8 hPa 5.5 m/s 14.6° 1024.2 hPa 4.6 m/s 11.4 mm
14:00 16.0° 1022.4 hPa 5.7 m/s 13.4 mm 15.9° 1022.3 hPa 6.0 m/s 17.5° 1024.0 hPa 2.1 m/s 13.4 mm
17:00 16.1° 1021.7 hPa 5.0 m/s 15.4 mm 15.8° 1021.5 hPa 5.0 m/s 19.5° 1023.6 hPa 5.2 m/s 15.4 mm
20:00 15.6° 1021.1 hPa 3.9 m/s 16.0 mm 15.6° 1020.8 hPa 3.9 m/s 15.4° 1024.0 hPa 3.5 m/s 16.0 mm
23:00 15.6° 1020.1 hPa 5.2 m/s 16.0 mm 15.8° 1019.6 hPa 5.5 m/s 12.8° 1025.5 hPa 2.8 m/s 16.0 mm
 06:11     20:43    Daglengte: 14:32 Vrijdag 23 Aug
02:00 15.7° 1019.1 hPa 6.7 m/s 16.0 mm 16.0° 1018.5 hPa 7.0 m/s 12.5° 1026.1 hPa 3.0 m/s 16.0 mm
05:00 16.1° 1019.6 hPa 6.0 m/s 16.0 mm 16.5° 1019.0 hPa 6.3 m/s 12.2° 1026.1 hPa 2.6 m/s 16.0 mm
08:00 16.7° 1020.2 hPa 5.4 m/s 16.0 mm 17.0° 1019.6 hPa 5.6 m/s 13.6° 1026.9 hPa 3.0 m/s 16.0 mm
11:00 18.5° 1021.5 hPa 5.9 m/s 16.0 mm 18.6° 1020.9 hPa 6.2 m/s 17.7° 1027.7 hPa 3.2 m/s 16.0 mm
14:00 20.2° 1022.7 hPa 6.4 m/s 16.0 mm 20.2° 1022.2 hPa 6.7 m/s 20.6° 1027.8 hPa 2.6 m/s 16.0 mm
17:00 19.2° 1023.2 hPa 5.0 m/s 16.0 mm 19.0° 1022.8 hPa 5.2 m/s 21.2° 1027.6 hPa 2.5 m/s 16.0 mm
20:00 17.8° 1023.7 hPa 3.6 m/s 16.0 mm 17.8° 1023.4 hPa 3.8 m/s 17.3° 1027.3 hPa 1.9 m/s 16.0 mm
23:00 16.0° 1024.3 hPa 2.7 m/s 16.0 mm 16.1° 1024.0 hPa 2.8 m/s 14.7° 1027.6 hPa 1.7 m/s 16.0 mm
 06:13     20:41    Daglengte: 14:28 Zaterdag 24 Aug
02:00 14.4° 1024.9 hPa 1.9 m/s 16.0 mm 14.4° 1024.7 hPa 1.8 m/s 13.8° 1027.5 hPa 2.8 m/s 16.0 mm
05:00 14.8° 1025.2 hPa 1.9 m/s 16.0 mm 15.0° 1025.1 hPa 1.9 m/s 13.0° 1026.7 hPa 3.0 m/s 16.0 mm
08:00 15.5° 1025.5 hPa 2.0 m/s 16.0 mm 15.6° 1025.4 hPa 1.9 m/s 14.8° 1026.2 hPa 3.4 m/s 16.0 mm
11:00 18.7° 1025.4 hPa 2.0 m/s 16.0 mm 18.5° 1025.2 hPa 1.8 m/s 20.8° 1026.5 hPa 4.4 m/s 16.0 mm
14:00 21.6° 1025.1 hPa 1.9 m/s 16.0 mm 21.4° 1025.1 hPa 1.6 m/s 23.7° 1025.6 hPa 5.1 m/s 16.0 mm
17:00 20.6° 1024.3 hPa 2.0 m/s 16.0 mm 20.4° 1024.2 hPa 1.8 m/s 23.2° 1025.0 hPa 5.2 m/s 16.0 mm
20:00 19.4° 1023.4 hPa 2.1 m/s 16.0 mm 19.4° 1023.3 hPa 1.9 m/s 19.1° 1024.6 hPa 3.8 m/s 16.0 mm
23:00 16.9° 1023.4 hPa 2.3 m/s 16.0 mm 17.0° 1023.3 hPa 2.2 m/s 16.2° 1025.1 hPa 4.0 m/s 16.0 mm
 06:15     20:38    Daglengte: 14:23 Zondag 25 Aug
02:00 14.7° 1023.4 hPa 2.7 m/s 16.0 mm 14.6° 1023.3 hPa 2.5 m/s 15.5° 1024.6 hPa 4.5 m/s 16.0 mm
08:00 16.6° 1022.0 hPa 3.7 m/s 16.0 mm 16.6° 1021.8 hPa 3.6 m/s 16.3° 1023.7 hPa 4.8 m/s 16.0 mm
14:00 24.2° 1020.4 hPa 5.1 m/s 16.0 mm 24.3° 1020.1 hPa 5.0 m/s 23.5° 1023.4 hPa 6.5 m/s 16.0 mm
20:00 21.4° 1018.9 hPa 3.9 m/s 16.0 mm 21.6° 1018.6 hPa 3.9 m/s 19.1° 1022.2 hPa 4.0 m/s 16.0 mm
 06:17     20:35    Daglengte: 14:18 Maandag 26 Aug
02:00 16.6° 1018.9 hPa 2.9 m/s 16.0 mm 16.8° 1018.6 hPa 2.9 m/s 14.3° 1021.9 hPa 2.8 m/s 16.0 mm
08:00 16.9° 1019.2 hPa 1.1 m/s 16.0 mm 17.0° 1019.1 hPa 1.2 m/s 15.8° 1020.5 hPa 0.6 m/s 16.0 mm
14:00 24.7° 1020.2 hPa 1.6 m/s 16.0 mm 24.8° 1020.1 hPa 1.6 m/s 23.2° 1021.0 hPa 1.8 m/s 16.0 mm
20:00 19.7° 1020.8 hPa 3.4 m/s 16.0 mm 19.8° 1020.8 hPa 3.4 m/s 18.3° 1021.3 hPa 3.0 m/s 16.0 mm
 06:19     20:33    Daglengte: 14:14 Dinsdag 27 Aug
02:00 14.4° 1022.5 hPa 2.2 m/s 16.0 mm 14.4° 1022.4 hPa 2.3 m/s 14.4° 1023.3 hPa 1.1 m/s 16.0 mm
08:00 14.8° 1022.4 hPa 2.8 m/s 16.0 mm 14.7° 1022.3 hPa 2.9 m/s 15.7° 1023.9 hPa 1.5 m/s 16.0 mm
14:00 19.8° 1022.6 hPa 4.0 m/s 16.0 mm 19.5° 1022.3 hPa 4.3 m/s 23.4° 1025.4 hPa 1.2 m/s 16.0 mm
20:00 16.7° 1018.4 hPa 3.5 m/s 0.1 mm
 06:21     20:30    Daglengte: 14:09 Woensdag 28 Aug
02:00 13.9° 1019.0 hPa 2.3 m/s 0.0 mm
08:00 14.2° 1018.5 hPa 1.8 m/s 0.3 mm
14:00 19.7° 1018.5 hPa 2.9 m/s 0.4 mm
20:00 16.7° 1017.8 hPa 3.0 m/s 0.2 mm
 06:23     20:28    Daglengte: 14:05 Donderdag 29 Aug
02:00 13.6° 1017.9 hPa 2.4 m/s 0.3 mm
08:00 14.0° 1017.3 hPa 1.9 m/s 0.4 mm
14:00 19.9° 1017.5 hPa 2.8 m/s 0.2 mm
20:00 16.8° 1016.4 hPa 2.6 m/s 0.3 mm
 06:25     20:25    Daglengte: 14:00 Vrijdag 30 Aug
02:00 13.6° 1016.3 hPa 2.3 m/s 0.3 mm
08:00 14.0° 1015.6 hPa 2.0 m/s 0.2 mm
14:00 19.4° 1015.7 hPa 2.7 m/s 0.4 mm
20:00 16.0° 1014.8 hPa 2.8 m/s 0.1 mm
 06:27     20:22    Daglengte: 13:55 Zaterdag 31 Aug
02:00 12.9° 1014.7 hPa 1.9 m/s 0.2 mm
08:00 13.3° 1013.8 hPa 2.2 m/s 0.3 mm
14:00 18.7° 1014.4 hPa 3.6 m/s 0.2 mm
20:00 15.6° 1013.6 hPa 2.6 m/s 0.3 mm
 06:29     20:20    Daglengte: 13:51 Zondag 01 Sep
02:00 13.0° 1013.6 hPa 2.6 m/s 0.5 mm
08:00 13.3° 1013.2 hPa 2.8 m/s 0.8 mm
14:00 18.0° 1013.9 hPa 3.7 m/s 0.3 mm
20:00 15.1° 1013.6 hPa 3.4 m/s 0.2 mm
FMI Hirlam - 7.5 km EWN WRFDA - 12 km DWD ICON - 7 km GFS - 25 km Basiskaart






























































Updatetijd (Europe/Amsterdam) Resolutie Lengte Stap
FMI Hirlam 19:00, 01:00, 07:00, 13:00 7.5 km 49h 1h
EWN WRFDA 21:30, 03:30, 09:30, 15:30 12 km 73h 1h
DWD ICON 17:45, 23:45, 05:45, 11:45 7 km 75h 1h
GFS 20:30, 02:30, 08:30, 14:30 25 km 237h 3h
30+ mm
25-30 mm
20-25 mm
15-20 mm
10-15 mm
6-10 mm
4-6 mm
2-4 mm
1-2 mm
0.5-1 mm
0.2-0.5 mm
0.1-0.2 mm
30+ mm
25-30 mm
20-25 mm
15-20 mm
10-15 mm
6-10 mm
4-6 mm
2-4 mm
1-2 mm
0.5-1 mm
0.2-0.5 mm
0.1-0.2 mm
Sneeuwval
Natte sneeuw
Hagel
Vorst
30+ mm
25-30 mm
20-25 mm
15-20 mm
10-15 mm
6-10 mm
4-6 mm
2-4 mm
1-2 mm
0.5-1 mm
0.2-0.5 mm
0.1-0.2 mm
Sneeuwval
Natte sneeuw
Hagel
Vorst
Onweer
50 mm
40 mm
30 mm
26 mm
22 mm
18 mm
14 mm
10 mm
9 mm
8 mm
7 mm
6 mm
5 mm
4.5 mm
4 mm
3.5 mm
3 mm
2.5 mm
2 mm
1.5 mm
1 mm
0.8 mm
0.6 mm
0.4 mm
0.2 mm
0.05 mm
35°
30°
25°
20°
15°
10°
-5°
-10°
-15°
-20°
-25°
-30°
-35°
33> m/s
29 m/s
25 m/s
21 m/s
17 m/s
14 m/s
11 m/s
8 m/s
5 m/s
3 m/s
0 m/s
2600 J/kg
2400 J/kg
2200 J/kg
2000 J/kg
1800 J/kg
1600 J/kg
1400 J/kg
1200 J/kg
1000 J/kg
800 J/kg
600 J/kg
400 J/kg
200 J/kg
70 dBZ
65 dBZ
60 dBZ
55 dBZ
50 dBZ
45 dBZ
40 dBZ
35 dBZ
30 dBZ
25 dBZ
20 dBZ
15 dBZ
10 dBZ
5 dBZ
-1 K
-2 K
-3 K
-4 K
-5 K
-6 K
-7 K
-8 K
-9 K
950 m²/s²
900 m²/s²
850 m²/s²
800 m²/s²
750 m²/s²
700 m²/s²
650 m²/s²
600 m²/s²
550 m²/s²
500 m²/s²
450 m²/s²
400 m²/s²
350 m²/s²
300 m²/s²
250 m²/s²
200 m²/s²
150 m²/s²
100 m²/s²
46 m/s
44 m/s
42 m/s
40 m/s
38 m/s
36 m/s
34 m/s
32 m/s
30 m/s
28 m/s
26 m/s
24 m/s
22 m/s
20 m/s
16 m/s
12 m/s
8 m/s
4 m/s
30 m/s
28 m/s
26 m/s
24 m/s
22 m/s
20 m/s
18 m/s
16 m/s
14 m/s
12 m/s
10 m/s
8 m/s
6 m/s
4 m/s
2 m/s
3.0
2.8
2.6
2.4
2.2
2.0
1.8
1.6
1.4
1.2
1.0
0.8
0.6
0.4
0.2
15
14
13
12
11
10
9
8
7
6
5
4
3
2
1
90%
80%
70%
60%
50%
40%
30%
20%
10%
42
40
38
36
34
32
30
28
26
24
22
20
18
16
14
12
90+ cm
80-90 cm
70-80 cm
60-70 cm
50-60 cm
40-50 cm
30-40 cm
20-30 cm
10-20 cm
1-10 cm
Sneeuwval
Natte sneeuw
Regen
>120 mm
115 mm
110 mm
105 mm
100 mm
95 mm
90 mm
85 mm
80 mm
75 mm
70 mm
65 mm
60 mm
55 mm
50 mm
45 mm
45 mm
40 mm
35 mm
30 mm
25 mm
20 mm
15 mm
10 mm
5 mm
0.1 mm
960 hPa
880 hPa
800 hPa
720 hPa
640 hPa
560 hPa
584 gpdm
568 gpdm
552 gpdm
536 gpdm
520 gpdm
504 gpdm
488 gpdm
Extreem zwaar Noodweer Kans op onweer
15% 15% 5% 50% 15%

Dag




Kaart






35°
30°
25°
20°
15°
10°
-5°
-10°
-15°
-20°
-25°
-30°
-35°
33> m/s
29 m/s
25 m/s
21 m/s
17 m/s
14 m/s
11 m/s
8 m/s
5 m/s
3 m/s
0 m/s